Home > Weather > Laval > Past weeks

Flag for Canada Past Weather in Laval, Quebec, Canada — Yesterday and Last 2 Weeks

Now
79 °F

Partly sunny.


Feels Like: 81 °F
Forecast: 65 / 86 °F
Wind: 12 mph from Southwest

Location: Montreal / Mirabel

Current Time: Jul 27, 2016 at 1:24:07 PM

Latest Report: Jul 27, 2016 at 12:00 PM


Visibility: 30 mi

Pressure: 29.89 "Hg

Humidity: 65%

Dew Point: 66 °F

Location of LavalLocation

Past Weather in Laval — Graph

°F

Laval Temperature Yesterday

Maximum temperature yesterday: 79 °F (at 5:00 PM)
Minimum temperature yesterday: 63 °F (at 11:00 PM)
Average temperature yesterday: 71 °F

High & Low Weather Summary for the Past Weeks

 TemperatureHumidityPressure
High88 °F (Jul 13, 2:00 PM)100% (Jul 13, 2:00 AM)30.20 "Hg (Jul 13, 2:00 AM)
Low54 °F (Jul 20, 3:00 AM)41% (Jul 19, 5:00 PM)29.64 "Hg (Jul 14, 5:00 PM)
Average70 °F78%29.90 "Hg
* Reported Jul 12 1:00 PM — Jul 27 12:00 PM, Laval, Weather by CustomWeather, © 2016

Note: Actual official high and low records may vary slightly from our data, if they occured in-between our weather recording intervals... More about our weather records

Advertising

Laval Weather History for the Previous 24 Hours

Scroll right to see more
 ConditionsComfort  
Time TempWeatherWind HumidityBarometerVisibility
12:00 PM
Wed, Jul 27
79 °FPartly sunny.12 mph65%29.89 "Hg30 mi
11:00 AM77 °FScattered clouds.10 mph74%29.90 "Hg25 mi
10:00 AM73 °FPassing clouds.7 mph83%29.91 "Hg25 mi
9:00 AM70 °FScattered clouds.6 mph88%29.90 "Hg25 mi
8:00 AM66 °FPartly sunny.8 mph94%29.90 "Hg25 mi
7:00 AM64 °FPassing clouds.5 mph100%29.89 "Hg25 mi
6:00 AM61 °FPassing clouds.3 mph100%29.89 "Hg45 mi
5:00 AM61 °FLight fog.No wind100%29.89 "Hg45 mi
4:00 AM61 °FClear.2 mph100%29.89 "Hg25 mi
3:00 AM59 °FClear.No wind100%29.90 "Hg25 mi
2:00 AM61 °FClear.No wind100%29.90 "Hg25 mi
1:00 AM61 °FClear.2 mph100%29.90 "Hg25 mi
12:00 AM64 °FClear.No wind94%29.90 "Hg25 mi
11:00 PM
Tue, Jul 26
63 °FClear.2 mph100%29.90 "Hg25 mi
10:00 PM66 °FClear.2 mph94%29.89 "Hg25 mi
9:00 PM72 °FPassing clouds.2 mph73%29.88 "Hg25 mi
8:00 PM75 °FPassing clouds.3 mph69%29.87 "Hg45 mi
7:00 PM79 °FPassing clouds.5 mph61%29.86 "Hg45 mi
6:00 PM79 °FPassing clouds.6 mph58%29.86 "Hg45 mi
5:00 PM79 °FBroken clouds.5 mph58%29.86 "Hg45 mi
4:00 PM77 °FPartly sunny.6 mph65%29.85 "Hg45 mi
3:00 PM77 °FMore clouds than sun.8 mph65%29.86 "Hg45 mi
2:00 PM75 °FPartly sunny.6 mph69%29.86 "Hg25 mi
1:00 PM75 °FPartly sunny.9 mph69%29.85 "Hg35 mi
Weather by CustomWeather, © 2016

See weather overviewHow to use our weather pages